• Join FlightAware (Why Join?)
  • Login
  • US Flag 
07:12AM EDT


 

Airport Tracker/Info


-or-


 

Live Flight TrackerFlight Track Log ✈ SKW7363 ✈ 19-Aug-2013 ✈ KMSP - KBJI

Flight Track Log - Related Links

Times and Time Zones

All times are in EDT time to prevent confusion due to time zone crossing. See the SKW7363 flight status page for this flight to view local times or setup timezone preferences in your user account.

Time Position Orientation Groundspeed Altitude Reporting Facility
EDT Latitude Longitude Course Direction KTS MPH feet Rate Location/Type
10:30AM 44.8667 -93.1333 337° Northwest 192 221 3,100  Level Minneapolis TRACON
10:31AM 44.8667 -93.0667 90° East 220 253 5,700 2,400 Climbing Minneapolis TRACON
10:32AM 45.1657 -93.3851 338° Northwest  Level FlightAware Approximate
10:32AM 44.9167 -93.0333 25° Northeast 231 266 8,000  Level Minneapolis TRACON
10:33AM 45.2651 -93.4434 335° Northwest  Level FlightAware Approximate
10:33AM 44.9833 -93.0333 360° North 243 280 10,900  Level Minneapolis TRACON
10:34AM 45.3626 -93.5083 335° Northwest  Level FlightAware Approximate
10:34AM 45.0214 -93.0408 352° North 242 278 12,300  Level Minneapolis Center
10:35AM 45.4611 -93.5700 337° Northwest  Level FlightAware Approximate
10:35AM 45.0892 -93.0478 356° North 246 283 14,900  Level Minneapolis Center
10:36AM 45.1597 -93.0567 355° North 255 293 17,000 1,260 Climbing Minneapolis Center
10:37AM 45.2306 -93.0672 354° North 256 295 17,600 1,560 Climbing Minneapolis Center
10:38AM 45.3183 -93.0814 354° North 265 305 20,300 2,220 Climbing Minneapolis Center
10:39AM 45.3967 -93.0928 354° North 281 323 22,200 1,800 Climbing Minneapolis Center
10:40AM 45.4758 -93.1028 355° North 286 329 24,100 1,740 Climbing Minneapolis Center
10:41AM 45.5578 -93.1186 352° North 296 341 25,900 900 Climbing Minneapolis Center
10:42AM 45.6256 -93.1825 327° Northwest 292 336 26,000  Climbing Minneapolis Center
10:43AM 45.6931 -93.2419 328° Northwest 286 329 26,000  Level Minneapolis Center
10:44AM 45.7736 -93.3136 328° Northwest 287 330 26,000  Level Minneapolis Center
10:45AM 45.8569 -93.3886 328° Northwest 295 339 26,000  Level Minneapolis Center
10:46AM 45.9258 -93.4506 328° Northwest 292 336 26,000  Level Minneapolis Center
10:47AM 45.9944 -93.5128 328° Northwest 293 337 26,000  Level Minneapolis Center
10:48AM 46.0625 -93.5750 328° Northwest 292 336 26,000  Level Minneapolis Center
10:49AM 46.1433 -93.6464 329° Northwest 286 329 26,000  Level Minneapolis Center
10:50AM 46.2097 -93.7086 327° Northwest 286 329 26,000  Level Minneapolis Center
10:51AM 46.2686 -93.7608 328° Northwest 286 329 26,000  Level Minneapolis Center
10:52AM 46.3347 -93.8217 328° Northwest 283 326 26,000  Level Minneapolis Center
10:53AM 46.4136 -93.8967 327° Northwest 282 325 26,000 -180 Level Minneapolis Center
10:54AM 46.4797 -93.9558 328° Northwest 281 323 25,700 -1,020 Descending Minneapolis Center
10:55AM 46.5450 -94.0167 327° Northwest 279 321 24,000 -1,500 Descending Minneapolis Center
10:56AM 46.6114 -94.0767 328° Northwest 281 323 22,600 -1,260 Descending Minneapolis Center
10:58AM 46.6750 -94.1358 327° Northwest 274 315 21,400 -1,440 Descending Minneapolis Center
10:59AM 46.7478 -94.2025 328° Northwest 260 299 19,700 -1,500 Descending Minneapolis Center
11:00AM 46.8083 -94.2594 327° Northwest 259 298 18,300 -1,440 Descending Minneapolis Center
11:01AM 46.8689 -94.3156 328° Northwest 257 296 16,800 -1,260 Descending Minneapolis Center
11:02AM 46.9161 -94.3578 329° Northwest 252 290 15,800 -1,320 Descending Minneapolis Center
11:03AM 46.9836 -94.4225 327° Northwest 243 280 14,100 -1,620 Descending Minneapolis Center
11:04AM 47.0389 -94.4761 327° Northwest 240 276 12,500 -1,320 Descending Minneapolis Center
11:05AM 47.0842 -94.5186 327° Northwest 240 276 11,400 -1,500 Descending Minneapolis Center
11:06AM 47.1614 -94.5939 326° Northwest 239 275 9,400 -1,620 Descending Minneapolis Center
11:07AM 47.2158 -94.6439 328° Northwest 234 269 8,100 -1,140 Descending Minneapolis Center
11:08AM 47.2681 -94.6928 328° Northwest 228 262 6,900 -1,260 Descending Minneapolis Center
11:09AM 47.3350 -94.7286 340° North 216 249 5,300 -1,380 Descending Minneapolis Center
11:10AM 47.3942 -94.7531 344° North 217 250 4,100 -660 Descending Minneapolis Center
11:11AM 47.4508 -94.7756 345° North 214 246 4,000 -60 Descending Minneapolis Center
11:12AM 47.5156 -94.8258 332° Northwest 218 251 4,000  Level Minneapolis Center
11:13AM 47.5647 -94.8769 325° Northwest 219 252 4,000  Level Minneapolis Center
11:14AM 47.6058 -94.9294 319° Northwest 207 238 4,000  Level Minneapolis Center
11:15AM 47.6372 -94.9819 312° West 185 213 4,000 -540 Level Minneapolis Center
11:16AM 47.6250 -95.0383 252° West 199 229 3,000 -540 Descending Minneapolis Center
11:17AM 47.5858 -95.0500 191° South 179 206 3,000 -360 Level Minneapolis Center
11:18AM 47.5514 -94.9961 133° Southeast 158 182 2,300 -480 Descending Minneapolis Center
11:19AM 47.5217 -94.9550 137° Southeast 156 180 2,100 -240 Descending Minneapolis Center